iso_date,Year,Hour,Min,DOY,POS_DOY,Lat,Lon,BP,Ts,Ta,has_bp,has_ts,has_ta,BuoyID,Buoy_Type,Buoy_Owner,Logistics,Hemisphere
2021-08-24T00:00:00Z,2021,0,0,236.0,236.0,57.73887,-152.5072,1004.3,16.25,-999.0,yes,yes,no,300534061555820,Ice Ball,USIABP,SIZRS,North
2021-08-24T01:00:02Z,2021,1,0,236.0417,236.0417,57.73889,-152.50852,1004.2,17.35,-999.0,yes,yes,no,300534061555820,Ice Ball,USIABP,SIZRS,North
2022-06-28T19:00:28Z,2022,19,0,179.792,179.792,57.73661,-152.50251,1018.7,18.8,-999.0,yes,yes,no,300534061555820,Ice Ball,USIABP,SIZRS,North
2022-06-28T19:15:27Z,2022,19,15,179.8024,179.8024,57.73661,-152.50251,1018.6,19.85,-999.0,yes,yes,no,300534061555820,Ice Ball,USIABP,SIZRS,North
2022-06-28T19:30:25Z,2022,19,30,179.8128,179.8128,57.73659,-152.50251,1018.6,20.25,-999.0,yes,yes,no,300534061555820,Ice Ball,USIABP,SIZRS,North
2022-06-29T21:00:51Z,2022,21,0,180.8756,180.8756,72.84803,-149.18369,1011.2,12.6,-999.0,yes,yes,no,300534061555820,Ice Ball,USIABP,SIZRS,North
2022-06-29T22:00:28Z,2022,22,0,180.917,180.917,72.84954,-149.16641,1011.1,7.45,-999.0,yes,yes,no,300534061555820,Ice Ball,USIABP,SIZRS,North
2022-06-29T23:00:23Z,2022,23,0,180.9586,180.9586,72.85029,-149.15022,1011.0,6.25,-999.0,yes,yes,no,300534061555820,Ice Ball,USIABP,SIZRS,North
2022-06-30T00:00:51Z,2022,0,0,181.0006,181.0006,72.8511,-149.13325,1010.9,5.75,-999.0,yes,yes,no,300534061555820,Ice Ball,USIABP,SIZRS,North
2022-06-30T01:00:28Z,2022,1,0,181.042,181.042,72.85171,-149.11526,1010.9,6.3,-999.0,yes,yes,no,300534061555820,Ice Ball,USIABP,SIZRS,North
2022-06-30T02:00:23Z,2022,2,0,181.0836,181.0836,72.85204,-149.09481,1011.3,6.15,-999.0,yes,yes,no,300534061555820,Ice Ball,USIABP,SIZRS,North
2022-06-30T03:00:25Z,2022,3,0,181.1253,181.1253,72.8514,-149.07436,1011.2,5.85,-999.0,yes,yes,no,300534061555820,Ice Ball,USIABP,SIZRS,North
2022-06-30T04:00:54Z,2022,4,0,181.1673,181.1673,72.85005,-149.05643,1011.4,5.6,-999.0,yes,yes,no,300534061555820,Ice Ball,USIABP,SIZRS,North
2022-06-30T05:00:23Z,2022,5,0,181.2086,181.2086,72.84836,-149.04114,1011.5,5.25,-999.0,yes,yes,no,300534061555820,Ice Ball,USIABP,SIZRS,North
2022-06-30T06:00:25Z,2022,6,0,181.2503,181.2503,72.8464,-149.02894,1011.9,4.9,-999.0,yes,yes,no,300534061555820,Ice Ball,USIABP,SIZRS,North
2022-06-30T07:00:54Z,2022,7,0,181.2923,181.2923,72.84469,-149.02049,1012.3,4.7,-999.0,yes,yes,no,300534061555820,Ice Ball,USIABP,SIZRS,North
2022-06-30T08:00:23Z,2022,8,0,181.3336,181.3336,72.84352,-149.01394,1012.9,4.45,-999.0,yes,yes,no,300534061555820,Ice Ball,USIABP,SIZRS,North
2022-06-30T09:00:25Z,2022,9,0,181.3753,181.3753,72.84284,-149.00796,1013.4,4.05,-999.0,yes,yes,no,300534061555820,Ice Ball,USIABP,SIZRS,North
2022-06-30T10:00:54Z,2022,10,0,181.4173,181.4173,72.84228,-149.00257,1013.8,3.8,-999.0,yes,yes,no,300534061555820,Ice Ball,USIABP,SIZRS,North
2022-06-30T11:00:23Z,2022,11,0,181.4586,181.4586,72.842,-148.99828,1014.3,3.6,-999.0,yes,yes,no,300534061555820,Ice Ball,USIABP,SIZRS,North
2022-06-30T12:00:25Z,2022,12,0,181.5003,181.5003,72.84215,-148.99398,1014.5,3.5,-999.0,yes,yes,no,300534061555820,Ice Ball,USIABP,SIZRS,North
2022-06-30T13:00:46Z,2022,13,0,181.5422,181.5422,72.84254,-148.98794,1014.7,3.45,-999.0,yes,yes,no,300534061555820,Ice Ball,USIABP,SIZRS,North
2022-06-30T14:00:23Z,2022,14,0,181.5836,181.5836,72.84278,-148.98128,1015.2,3.6,-999.0,yes,yes,no,300534061555820,Ice Ball,USIABP,SIZRS,North
2022-06-30T15:00:25Z,2022,15,0,181.6253,181.6253,72.84269,-148.9752,1015.3,4.0,-999.0,yes,yes,no,300534061555820,Ice Ball,USIABP,SIZRS,North
2022-06-30T16:00:54Z,2022,16,0,181.6673,181.6673,72.84233,-148.96968,1015.5,4.65,-999.0,yes,yes,no,300534061555820,Ice Ball,USIABP,SIZRS,North
2022-06-30T17:00:23Z,2022,17,0,181.7086,181.7086,72.84211,-148.96533,1015.5,5.25,-999.0,yes,yes,no,300534061555820,Ice Ball,USIABP,SIZRS,North
2022-06-30T18:00:25Z,2022,18,0,181.7503,181.7503,72.84228,-148.96047,1016.0,5.85,-999.0,yes,yes,no,300534061555820,Ice Ball,USIABP,SIZRS,North
2022-06-30T19:00:54Z,2022,19,0,181.7923,181.7923,72.84258,-148.95478,1016.5,6.55,-999.0,yes,yes,no,300534061555820,Ice Ball,USIABP,SIZRS,North
2022-06-30T20:00:23Z,2022,20,0,181.8336,181.8336,72.84324,-148.94845,1016.8,6.8,-999.0,yes,yes,no,300534061555820,Ice Ball,USIABP,SIZRS,North
2022-06-30T21:00:25Z,2022,21,0,181.8753,181.8753,72.8438,-148.94237,1017.0,7.0,-999.0,yes,yes,no,300534061555820,Ice Ball,USIABP,SIZRS,North
2022-06-30T22:00:54Z,2022,22,0,181.9173,181.9173,72.84427,-148.93622,1017.4,7.0,-999.0,yes,yes,no,300534061555820,Ice Ball,USIABP,SIZRS,North
2022-06-30T23:00:23Z,2022,23,0,181.9586,181.9586,72.84466,-148.93018,1017.7,6.85,-999.0,yes,yes,no,300534061555820,Ice Ball,USIABP,SIZRS,North
2022-07-01T00:00:25Z,2022,0,0,182.0003,182.0003,72.84494,-148.9244,1017.9,6.65,-999.0,yes,yes,no,300534061555820,Ice Ball,USIABP,SIZRS,North
2022-07-01T01:00:54Z,2022,1,0,182.0423,182.0423,72.84495,-148.91921,1018.0,6.75,-999.0,yes,yes,no,300534061555820,Ice Ball,USIABP,SIZRS,North
2022-07-01T02:00:23Z,2022,2,0,182.0836,182.0836,72.84459,-148.91524,1018.2,7.6,-999.0,yes,yes,no,300534061555820,Ice Ball,USIABP,SIZRS,North
2022-07-01T03:00:25Z,2022,3,0,182.1253,182.1253,72.84409,-148.91298,1018.4,7.25,-999.0,yes,yes,no,300534061555820,Ice Ball,USIABP,SIZRS,North
2022-07-01T04:00:54Z,2022,4,0,182.1673,182.1673,72.84348,-148.91223,1018.5,6.0,-999.0,yes,yes,no,300534061555820,Ice Ball,USIABP,SIZRS,North
2022-07-01T05:00:23Z,2022,5,0,182.2086,182.2086,72.84321,-148.9129,1018.2,5.35,-999.0,yes,yes,no,300534061555820,Ice Ball,USIABP,SIZRS,North
2022-07-01T06:00:25Z,2022,6,0,182.2503,182.2503,72.8434,-148.91472,1018.0,5.1,-999.0,yes,yes,no,300534061555820,Ice Ball,USIABP,SIZRS,North
2022-07-01T07:00:54Z,2022,7,0,182.2923,182.2923,72.84437,-148.91774,1017.9,4.75,-999.0,yes,yes,no,300534061555820,Ice Ball,USIABP,SIZRS,North
2022-07-01T08:00:23Z,2022,8,0,182.3336,182.3336,72.84591,-148.9205,1018.3,5.2,-999.0,yes,yes,no,300534061555820,Ice Ball,USIABP,SIZRS,North
2022-07-01T09:00:25Z,2022,9,0,182.3753,182.3753,72.84771,-148.92257,1018.5,4.35,-999.0,yes,yes,no,300534061555820,Ice Ball,USIABP,SIZRS,North
2022-07-01T10:00:54Z,2022,10,0,182.4173,182.4173,72.84951,-148.92359,1018.5,4.05,-999.0,yes,yes,no,300534061555820,Ice Ball,USIABP,SIZRS,North
2022-07-01T11:00:23Z,2022,11,0,182.4586,182.4586,72.85105,-148.92381,1018.3,3.75,-999.0,yes,yes,no,300534061555820,Ice Ball,USIABP,SIZRS,North
2022-07-01T12:00:25Z,2022,12,0,182.5003,182.5003,72.85226,-148.92383,1018.3,3.45,-999.0,yes,yes,no,300534061555820,Ice Ball,USIABP,SIZRS,North
2022-07-01T13:00:28Z,2022,13,0,182.542,182.542,72.85334,-148.92417,1018.2,3.55,-999.0,yes,yes,no,300534061555820,Ice Ball,USIABP,SIZRS,North
2022-07-01T14:00:23Z,2022,14,0,182.5836,182.5836,72.85419,-148.92533,1018.0,3.75,-999.0,yes,yes,no,300534061555820,Ice Ball,USIABP,SIZRS,North
2022-07-01T15:00:25Z,2022,15,0,182.6253,182.6253,72.85514,-148.92774,1017.6,4.25,-999.0,yes,yes,no,300534061555820,Ice Ball,USIABP,SIZRS,North
2022-07-01T16:00:54Z,2022,16,0,182.6673,182.6673,72.85659,-148.93123,1017.5,4.75,-999.0,yes,yes,no,300534061555820,Ice Ball,USIABP,SIZRS,North
2022-07-01T17:00:23Z,2022,17,0,182.7086,182.7086,72.8586,-148.93525,1017.3,5.1,-999.0,yes,yes,no,300534061555820,Ice Ball,USIABP,SIZRS,North
2022-07-01T18:00:25Z,2022,18,0,182.7503,182.7503,72.86139,-148.93968,1017.5,5.65,-999.0,yes,yes,no,300534061555820,Ice Ball,USIABP,SIZRS,North
2022-07-01T19:00:28Z,2022,19,0,182.792,182.792,72.8644,-148.94294,1017.6,6.55,-999.0,yes,yes,no,300534061555820,Ice Ball,USIABP,SIZRS,North
2022-07-01T20:00:57Z,2022,20,0,182.834,182.834,72.86734,-148.94508,1017.7,7.55,-999.0,yes,yes,no,300534061555820,Ice Ball,USIABP,SIZRS,North
2022-07-01T21:00:25Z,2022,21,0,182.8753,182.8753,72.87016,-148.94627,1017.5,8.35,-999.0,yes,yes,no,300534061555820,Ice Ball,USIABP,SIZRS,North
2022-07-01T22:00:28Z,2022,22,0,182.917,182.917,72.87279,-148.94667,1017.6,8.35,-999.0,yes,yes,no,300534061555820,Ice Ball,USIABP,SIZRS,North
2022-07-01T23:00:31Z,2022,23,0,182.9587,182.9587,72.87507,-148.94643,1017.4,9.2,-999.0,yes,yes,no,300534061555820,Ice Ball,USIABP,SIZRS,North
2022-07-02T00:00:25Z,2022,0,0,183.0003,183.0003,72.87701,-148.94607,1017.2,9.0,-999.0,yes,yes,no,300534061555820,Ice Ball,USIABP,SIZRS,North
2022-07-02T01:00:28Z,2022,1,0,183.042,183.042,72.87815,-148.94649,1017.1,9.3,-999.0,yes,yes,no,300534061555820,Ice Ball,USIABP,SIZRS,North
2022-07-02T02:00:57Z,2022,2,0,183.084,183.084,72.87876,-148.94798,1016.9,10.9,-999.0,yes,yes,no,300534061555820,Ice Ball,USIABP,SIZRS,North
2022-07-02T03:00:25Z,2022,3,0,183.1253,183.1253,72.87895,-148.95119,1017.0,12.55,-999.0,yes,yes,no,300534061555820,Ice Ball,USIABP,SIZRS,North
2022-07-02T04:00:28Z,2022,4,0,183.167,183.167,72.87908,-148.95654,1016.9,12.85,-999.0,yes,yes,no,300534061555820,Ice Ball,USIABP,SIZRS,North
2022-07-02T05:00:31Z,2022,5,0,183.2087,183.2087,72.87946,-148.96379,1016.8,12.4,-999.0,yes,yes,no,300534061555820,Ice Ball,USIABP,SIZRS,North
2022-07-02T06:00:51Z,2022,6,0,183.2506,183.2506,72.88022,-148.97221,1016.7,11.65,-999.0,yes,yes,no,300534061555820,Ice Ball,USIABP,SIZRS,North
2022-07-02T07:00:28Z,2022,7,0,183.292,183.292,72.8815,-148.98086,1017.0,10.65,-999.0,yes,yes,no,300534061555820,Ice Ball,USIABP,SIZRS,North
2022-07-02T08:00:23Z,2022,8,0,183.3336,183.3336,72.88318,-148.9889,1017.1,10.05,-999.0,yes,yes,no,300534061555820,Ice Ball,USIABP,SIZRS,North
2022-07-02T09:00:51Z,2022,9,0,183.3756,183.3756,72.88518,-148.9961,1017.1,8.55,-999.0,yes,yes,no,300534061555820,Ice Ball,USIABP,SIZRS,North
2022-07-02T10:00:28Z,2022,10,0,183.417,183.417,72.88733,-149.00193,1017.0,6.95,-999.0,yes,yes,no,300534061555820,Ice Ball,USIABP,SIZRS,North
2022-07-02T11:00:23Z,2022,11,0,183.4586,183.4586,72.8894,-149.00589,1016.9,5.8,-999.0,yes,yes,no,300534061555820,Ice Ball,USIABP,SIZRS,North
2022-07-02T12:00:51Z,2022,12,0,183.5006,183.5006,72.89109,-149.0086,1017.1,5.25,-999.0,yes,yes,no,300534061555820,Ice Ball,USIABP,SIZRS,North
2022-07-02T13:00:28Z,2022,13,0,183.542,183.542,72.89214,-149.01069,1017.1,5.25,-999.0,yes,yes,no,300534061555820,Ice Ball,USIABP,SIZRS,North
2022-07-02T14:00:23Z,2022,14,0,183.5836,183.5836,72.89269,-149.01318,1017.4,5.45,-999.0,yes,yes,no,300534061555820,Ice Ball,USIABP,SIZRS,North
2022-07-02T15:00:51Z,2022,15,0,183.6256,183.6256,72.89275,-149.01696,1017.1,6.3,-999.0,yes,yes,no,300534061555820,Ice Ball,USIABP,SIZRS,North
2022-07-02T16:00:28Z,2022,16,0,183.667,183.667,72.89258,-149.02248,1017.7,8.1,-999.0,yes,yes,no,300534061555820,Ice Ball,USIABP,SIZRS,North
2022-07-02T17:00:23Z,2022,17,0,183.7086,183.7086,72.89233,-149.03011,1017.7,8.45,-999.0,yes,yes,no,300534061555820,Ice Ball,USIABP,SIZRS,North
2022-07-02T18:00:51Z,2022,18,0,183.7506,183.7506,72.89228,-149.03988,1018.1,8.95,-999.0,yes,yes,no,300534061555820,Ice Ball,USIABP,SIZRS,North
2022-07-02T19:00:28Z,2022,19,0,183.792,183.792,72.89258,-149.05083,1018.1,9.25,-999.0,yes,yes,no,300534061555820,Ice Ball,USIABP,SIZRS,North
2022-07-02T20:00:23Z,2022,20,0,183.8336,183.8336,72.8933,-149.06227,1018.4,8.9,-999.0,yes,yes,no,300534061555820,Ice Ball,USIABP,SIZRS,North
2022-07-02T21:00:25Z,2022,21,0,183.8753,183.8753,72.8944,-149.07431,1018.5,9.2,-999.0,yes,yes,no,300534061555820,Ice Ball,USIABP,SIZRS,North
2022-07-02T22:00:54Z,2022,22,0,183.9173,183.9173,72.89605,-149.08552,1018.5,10.0,-999.0,yes,yes,no,300534061555820,Ice Ball,USIABP,SIZRS,North
2022-07-02T23:00:23Z,2022,23,0,183.9586,183.9586,72.8977,-149.09499,1018.8,9.5,-999.0,yes,yes,no,300534061555820,Ice Ball,USIABP,SIZRS,North
2022-07-03T00:00:25Z,2022,0,0,184.0003,184.0003,72.89913,-149.10299,1018.7,8.75,-999.0,yes,yes,no,300534061555820,Ice Ball,USIABP,SIZRS,North
2022-07-03T01:00:54Z,2022,1,0,184.0423,184.0423,72.90043,-149.11161,1018.7,9.15,-999.0,yes,yes,no,300534061555820,Ice Ball,USIABP,SIZRS,North
2022-07-03T02:00:23Z,2022,2,0,184.0836,184.0836,72.90149,-149.11925,1018.9,9.65,-999.0,yes,yes,no,300534061555820,Ice Ball,USIABP,SIZRS,North
2022-07-03T03:00:25Z,2022,3,0,184.1253,184.1253,72.90219,-149.12746,1019.2,9.45,-999.0,yes,yes,no,300534061555820,Ice Ball,USIABP,SIZRS,North
2022-07-03T04:00:54Z,2022,4,0,184.1673,184.1673,72.90227,-149.13855,1019.0,8.45,-999.0,yes,yes,no,300534061555820,Ice Ball,USIABP,SIZRS,North
2022-07-03T05:00:23Z,2022,5,0,184.2086,184.2086,72.90201,-149.15362,1018.9,7.9,-999.0,yes,yes,no,300534061555820,Ice Ball,USIABP,SIZRS,North
2022-07-03T06:00:25Z,2022,6,0,184.2503,184.2503,72.90242,-149.17114,1019.1,7.15,-999.0,yes,yes,no,300534061555820,Ice Ball,USIABP,SIZRS,North
2022-07-03T07:00:54Z,2022,7,0,184.2923,184.2923,72.90381,-149.18936,1019.4,6.2,-999.0,yes,yes,no,300534061555820,Ice Ball,USIABP,SIZRS,North
2022-07-03T08:00:23Z,2022,8,0,184.3336,184.3336,72.90578,-149.20667,1019.3,5.8,-999.0,yes,yes,no,300534061555820,Ice Ball,USIABP,SIZRS,North
2022-07-03T09:00:25Z,2022,9,0,184.3753,184.3753,72.90853,-149.22243,1019.4,5.25,-999.0,yes,yes,no,300534061555820,Ice Ball,USIABP,SIZRS,North
2022-07-03T10:00:54Z,2022,10,0,184.4173,184.4173,72.91164,-149.23649,1019.4,4.25,-999.0,yes,yes,no,300534061555820,Ice Ball,USIABP,SIZRS,North
2022-07-03T11:00:23Z,2022,11,0,184.4586,184.4586,72.91406,-149.24887,1019.4,3.2,-999.0,yes,yes,no,300534061555820,Ice Ball,USIABP,SIZRS,North
2022-07-03T12:00:25Z,2022,12,0,184.5003,184.5003,72.91554,-149.26155,1019.0,2.65,-999.0,yes,yes,no,300534061555820,Ice Ball,USIABP,SIZRS,North
2022-07-03T13:00:37Z,2022,13,0,184.5421,184.5421,72.91616,-149.27546,1018.8,2.45,-999.0,yes,yes,no,300534061555820,Ice Ball,USIABP,SIZRS,North
2022-07-03T14:00:23Z,2022,14,0,184.5836,184.5836,72.91657,-149.29138,1018.6,2.55,-999.0,yes,yes,no,300534061555820,Ice Ball,USIABP,SIZRS,North
2022-07-03T15:00:25Z,2022,15,0,184.6253,184.6253,72.91721,-149.30894,1018.3,2.8,-999.0,yes,yes,no,300534061555820,Ice Ball,USIABP,SIZRS,North
2022-07-03T16:00:54Z,2022,16,0,184.6673,184.6673,72.91831,-149.32701,1018.1,3.1,-999.0,yes,yes,no,300534061555820,Ice Ball,USIABP,SIZRS,North
2022-07-03T17:00:23Z,2022,17,0,184.7086,184.7086,72.91983,-149.34375,1018.1,3.35,-999.0,yes,yes,no,300534061555820,Ice Ball,USIABP,SIZRS,North
2022-07-03T18:00:25Z,2022,18,0,184.7503,184.7503,72.92164,-149.35839,1017.6,3.85,-999.0,yes,yes,no,300534061555820,Ice Ball,USIABP,SIZRS,North
2022-07-03T19:00:28Z,2022,19,0,184.792,184.792,72.92324,-149.37141,1017.3,4.1,-999.0,yes,yes,no,300534061555820,Ice Ball,USIABP,SIZRS,North
2022-07-03T20:00:23Z,2022,20,0,184.8336,184.8336,72.92512,-149.38227,1017.2,4.45,-999.0,yes,yes,no,300534061555820,Ice Ball,USIABP,SIZRS,North
2022-07-03T21:00:25Z,2022,21,0,184.8753,184.8753,72.92732,-149.39028,1017.0,5.1,-999.0,yes,yes,no,300534061555820,Ice Ball,USIABP,SIZRS,North
2022-07-03T22:00:54Z,2022,22,0,184.9173,184.9173,72.92924,-149.39607,1016.8,5.8,-999.0,yes,yes,no,300534061555820,Ice Ball,USIABP,SIZRS,North
2022-07-03T23:00:23Z,2022,23,0,184.9586,184.9586,72.93063,-149.40009,1016.7,6.7,-999.0,yes,yes,no,300534061555820,Ice Ball,USIABP,SIZRS,North
2022-07-04T00:00:25Z,2022,0,0,185.0003,185.0003,72.93151,-149.40331,1016.6,7.55,-999.0,yes,yes,no,300534061555820,Ice Ball,USIABP,SIZRS,North
2022-07-04T01:00:54Z,2022,1,0,185.0423,185.0423,72.93196,-149.40686,1016.5,8.7,-999.0,yes,yes,no,300534061555820,Ice Ball,USIABP,SIZRS,North
2022-07-04T02:00:23Z,2022,2,0,185.0836,185.0836,72.93207,-149.41065,1016.5,9.85,-999.0,yes,yes,no,300534061555820,Ice Ball,USIABP,SIZRS,North
2022-07-04T03:00:25Z,2022,3,0,185.1253,185.1253,72.93188,-149.416,1016.2,9.75,-999.0,yes,yes,no,300534061555820,Ice Ball,USIABP,SIZRS,North
2022-07-04T04:00:54Z,2022,4,0,185.1673,185.1673,72.93164,-149.42318,1016.2,8.4,-999.0,yes,yes,no,300534061555820,Ice Ball,USIABP,SIZRS,North
2022-07-04T05:00:23Z,2022,5,0,185.2086,185.2086,72.93148,-149.43199,1016.1,7.35,-999.0,yes,yes,no,300534061555820,Ice Ball,USIABP,SIZRS,North
2022-07-04T06:00:25Z,2022,6,0,185.2503,185.2503,72.93134,-149.44186,1016.1,5.8,-999.0,yes,yes,no,300534061555820,Ice Ball,USIABP,SIZRS,North
2022-07-04T07:00:54Z,2022,7,0,185.2923,185.2923,72.93182,-149.45308,1016.1,4.4,-999.0,yes,yes,no,300534061555820,Ice Ball,USIABP,SIZRS,North
2022-07-04T08:00:23Z,2022,8,0,185.3336,185.3336,72.93237,-149.4639,1016.0,3.55,-999.0,yes,yes,no,300534061555820,Ice Ball,USIABP,SIZRS,North
2022-07-04T09:00:34Z,2022,9,0,185.3754,185.3754,72.93306,-149.47437,1015.9,2.95,-999.0,yes,yes,no,300534061555820,Ice Ball,USIABP,SIZRS,North
2022-07-04T10:00:28Z,2022,10,0,185.417,185.417,72.93372,-149.48343,1015.7,2.6,-999.0,yes,yes,no,300534061555820,Ice Ball,USIABP,SIZRS,North
2022-07-04T11:00:23Z,2022,11,0,185.4586,185.4586,72.93432,-149.49175,1015.7,2.4,-999.0,yes,yes,no,300534061555820,Ice Ball,USIABP,SIZRS,North
2022-07-04T12:00:51Z,2022,12,0,185.5006,185.5006,72.93463,-149.4997,1015.4,2.3,-999.0,yes,yes,no,300534061555820,Ice Ball,USIABP,SIZRS,North
2022-07-04T13:00:28Z,2022,13,0,185.542,185.542,72.93442,-149.50829,1015.0,2.25,-999.0,yes,yes,no,300534061555820,Ice Ball,USIABP,SIZRS,North
2022-07-04T14:00:23Z,2022,14,0,185.5836,185.5836,72.93378,-149.51826,1014.7,2.2,-999.0,yes,yes,no,300534061555820,Ice Ball,USIABP,SIZRS,North
2022-07-04T15:00:51Z,2022,15,0,185.6256,185.6256,72.93278,-149.53062,1014.7,2.3,-999.0,yes,yes,no,300534061555820,Ice Ball,USIABP,SIZRS,North
2022-07-04T16:00:28Z,2022,16,0,185.667,185.667,72.9318,-149.54467,1014.7,2.5,-999.0,yes,yes,no,300534061555820,Ice Ball,USIABP,SIZRS,North
2022-07-04T17:00:23Z,2022,17,0,185.7086,185.7086,72.93094,-149.56102,1014.8,2.45,-999.0,yes,yes,no,300534061555820,Ice Ball,USIABP,SIZRS,North
2022-07-04T18:00:51Z,2022,18,0,185.7506,185.7506,72.9303,-149.57961,1013.8,2.45,-999.0,yes,yes,no,300534061555820,Ice Ball,USIABP,SIZRS,North
2022-07-04T19:00:28Z,2022,19,0,185.792,185.792,72.93007,-149.5996,1014.1,2.6,-999.0,yes,yes,no,300534061555820,Ice Ball,USIABP,SIZRS,North
2022-07-04T20:00:23Z,2022,20,0,185.8336,185.8336,72.93107,-149.61773,1014.2,2.6,-999.0,yes,yes,no,300534061555820,Ice Ball,USIABP,SIZRS,North
2022-07-04T21:00:25Z,2022,21,0,185.8753,185.8753,72.93279,-149.63379,1013.7,3.05,-999.0,yes,yes,no,300534061555820,Ice Ball,USIABP,SIZRS,North
2022-07-04T22:00:54Z,2022,22,0,185.9173,185.9173,72.93486,-149.64897,1013.4,3.45,-999.0,yes,yes,no,300534061555820,Ice Ball,USIABP,SIZRS,North
2022-07-04T23:00:23Z,2022,23,0,185.9586,185.9586,72.9368,-149.6626,1013.1,3.8,-999.0,yes,yes,no,300534061555820,Ice Ball,USIABP,SIZRS,North
2022-07-05T00:00:25Z,2022,0,0,186.0003,186.0003,72.93886,-149.67549,1013.5,4.05,-999.0,yes,yes,no,300534061555820,Ice Ball,USIABP,SIZRS,North
2022-07-05T01:00:54Z,2022,1,0,186.0423,186.0423,72.9411,-149.68567,1012.8,4.65,-999.0,yes,yes,no,300534061555820,Ice Ball,USIABP,SIZRS,North
2022-07-05T02:00:23Z,2022,2,0,186.0836,186.0836,72.94238,-149.69387,1012.4,4.85,-999.0,yes,yes,no,300534061555820,Ice Ball,USIABP,SIZRS,North
2022-07-05T03:00:25Z,2022,3,0,186.1253,186.1253,72.94312,-149.703,1012.5,4.4,-999.0,yes,yes,no,300534061555820,Ice Ball,USIABP,SIZRS,North
2022-07-05T04:00:54Z,2022,4,0,186.1673,186.1673,72.94359,-149.7126,1012.3,4.15,-999.0,yes,yes,no,300534061555820,Ice Ball,USIABP,SIZRS,North
2022-07-05T05:00:23Z,2022,5,0,186.2086,186.2086,72.94389,-149.72215,1011.9,3.8,-999.0,yes,yes,no,300534061555820,Ice Ball,USIABP,SIZRS,North
2022-07-05T06:00:25Z,2022,6,0,186.2503,186.2503,72.94398,-149.73399,1012.2,3.1,-999.0,yes,yes,no,300534061555820,Ice Ball,USIABP,SIZRS,North
2022-07-05T07:00:54Z,2022,7,0,186.2923,186.2923,72.94394,-149.74769,1012.0,2.5,-999.0,yes,yes,no,300534061555820,Ice Ball,USIABP,SIZRS,North
2022-07-05T08:00:23Z,2022,8,0,186.3336,186.3336,72.9441,-149.76319,1011.7,2.1,-999.0,yes,yes,no,300534061555820,Ice Ball,USIABP,SIZRS,North
2022-07-05T09:00:25Z,2022,9,0,186.3753,186.3753,72.94474,-149.78064,1011.7,1.8,-999.0,yes,yes,no,300534061555820,Ice Ball,USIABP,SIZRS,North
2022-07-05T10:00:54Z,2022,10,0,186.4173,186.4173,72.94623,-149.79763,1011.8,1.6,-999.0,yes,yes,no,300534061555820,Ice Ball,USIABP,SIZRS,North
2022-07-05T11:00:23Z,2022,11,0,186.4586,186.4586,72.94909,-149.8113,1011.6,1.55,-999.0,yes,yes,no,300534061555820,Ice Ball,USIABP,SIZRS,North
2022-07-05T12:00:25Z,2022,12,0,186.5003,186.5003,72.95246,-149.81772,1011.4,1.6,-999.0,yes,yes,no,300534061555820,Ice Ball,USIABP,SIZRS,North
2022-07-05T13:00:28Z,2022,13,0,186.542,186.542,72.95523,-149.81871,1011.2,1.75,-999.0,yes,yes,no,300534061555820,Ice Ball,USIABP,SIZRS,North
2022-07-05T14:00:23Z,2022,14,0,186.5836,186.5836,72.95691,-149.81721,1011.3,1.95,-999.0,yes,yes,no,300534061555820,Ice Ball,USIABP,SIZRS,North
2022-07-05T15:00:25Z,2022,15,0,186.6253,186.6253,72.95717,-149.81451,1010.9,2.65,-999.0,yes,yes,no,300534061555820,Ice Ball,USIABP,SIZRS,North
2022-07-05T16:00:54Z,2022,16,0,186.6673,186.6673,72.95613,-149.81351,1011.0,3.3,-999.0,yes,yes,no,300534061555820,Ice Ball,USIABP,SIZRS,North
2022-07-05T17:00:23Z,2022,17,0,186.7086,186.7086,72.95419,-149.81559,1010.8,4.1,-999.0,yes,yes,no,300534061555820,Ice Ball,USIABP,SIZRS,North
2022-07-05T18:00:25Z,2022,18,0,186.7503,186.7503,72.95185,-149.82083,1011.0,5.35,-999.0,yes,yes,no,300534061555820,Ice Ball,USIABP,SIZRS,North
2022-07-05T19:00:28Z,2022,19,0,186.792,186.792,72.94951,-149.82999,1010.9,5.75,-999.0,yes,yes,no,300534061555820,Ice Ball,USIABP,SIZRS,North
2022-07-05T20:00:23Z,2022,20,0,186.8336,186.8336,72.94806,-149.84261,1010.8,7.35,-999.0,yes,yes,no,300534061555820,Ice Ball,USIABP,SIZRS,North
2022-07-05T21:00:25Z,2022,21,0,186.8753,186.8753,72.94766,-149.85676,1010.7,7.75,-999.0,yes,yes,no,300534061555820,Ice Ball,USIABP,SIZRS,North
2022-07-05T22:00:54Z,2022,22,0,186.9173,186.9173,72.94843,-149.8698,1010.7,10.2,-999.0,yes,yes,no,300534061555820,Ice Ball,USIABP,SIZRS,North
2022-07-05T23:00:23Z,2022,23,0,186.9586,186.9586,72.95018,-149.87875,1010.6,8.9,-999.0,yes,yes,no,300534061555820,Ice Ball,USIABP,SIZRS,North
2022-07-06T00:00:25Z,2022,0,0,187.0003,187.0003,72.95205,-149.88273,1010.5,7.85,-999.0,yes,yes,no,300534061555820,Ice Ball,USIABP,SIZRS,North
2022-07-06T01:00:54Z,2022,1,0,187.0423,187.0423,72.95343,-149.88244,1010.3,6.9,-999.0,yes,yes,no,300534061555820,Ice Ball,USIABP,SIZRS,North
2022-07-06T02:00:23Z,2022,2,0,187.0836,187.0836,72.95352,-149.87938,1010.3,6.3,-999.0,yes,yes,no,300534061555820,Ice Ball,USIABP,SIZRS,North
2022-07-06T03:00:25Z,2022,3,0,187.1253,187.1253,72.95261,-149.87628,1010.1,6.85,-999.0,yes,yes,no,300534061555820,Ice Ball,USIABP,SIZRS,North
2022-07-06T04:00:54Z,2022,4,0,187.1673,187.1673,72.95065,-149.8747,1010.3,6.85,-999.0,yes,yes,no,300534061555820,Ice Ball,USIABP,SIZRS,North
2022-07-06T05:00:23Z,2022,5,0,187.2086,187.2086,72.94834,-149.87588,1010.1,5.8,-999.0,yes,yes,no,300534061555820,Ice Ball,USIABP,SIZRS,North
2022-07-06T06:00:25Z,2022,6,0,187.2503,187.2503,72.94605,-149.88043,1010.3,5.25,-999.0,yes,yes,no,300534061555820,Ice Ball,USIABP,SIZRS,North
2022-07-06T07:00:54Z,2022,7,0,187.2923,187.2923,72.9443,-149.88587,1010.2,3.95,-999.0,yes,yes,no,300534061555820,Ice Ball,USIABP,SIZRS,North
2022-07-06T08:00:31Z,2022,8,0,187.3337,187.3337,72.94323,-149.89168,1010.1,3.15,-999.0,yes,yes,no,300534061555820,Ice Ball,USIABP,SIZRS,North
2022-07-06T09:00:25Z,2022,9,0,187.3753,187.3753,72.94281,-149.89792,1010.1,2.8,-999.0,yes,yes,no,300534061555820,Ice Ball,USIABP,SIZRS,North
2022-07-06T10:00:28Z,2022,10,0,187.417,187.417,72.94302,-149.90291,1009.9,2.5,-999.0,yes,yes,no,300534061555820,Ice Ball,USIABP,SIZRS,North
2022-07-06T11:00:23Z,2022,11,0,187.4586,187.4586,72.94396,-149.90646,1009.7,2.25,-999.0,yes,yes,no,300534061555820,Ice Ball,USIABP,SIZRS,North
2022-07-06T12:00:51Z,2022,12,0,187.5006,187.5006,72.94522,-149.90624,1009.9,2.15,-999.0,yes,yes,no,300534061555820,Ice Ball,USIABP,SIZRS,North
2022-07-06T13:00:28Z,2022,13,0,187.542,187.542,72.94628,-149.90263,1009.5,2.1,-999.0,yes,yes,no,300534061555820,Ice Ball,USIABP,SIZRS,North
2022-07-06T14:00:23Z,2022,14,0,187.5836,187.5836,72.94683,-149.89641,1009.5,2.1,-999.0,yes,yes,no,300534061555820,Ice Ball,USIABP,SIZRS,North
2022-07-06T15:00:51Z,2022,15,0,187.6256,187.6256,72.94671,-149.88879,1009.8,2.2,-999.0,yes,yes,no,300534061555820,Ice Ball,USIABP,SIZRS,North